QPF
0.00 0.00 0.00 0.00 0.00 0.00 0.00 0.00 0.00 0.00 0.00 0.00 0.00 0.00 0.00 0.00 0.00 0.00 0.00 0.00 0.00 0.00 0.00 0.00 0.00 0.00 0.00 0.00 0.00 0.00 0.00 0.00
0.00 0.00 0.00 0.00 0.00 0.00 0.00 0.00 0.00 0.00 0.00 0.00 0.00 0.00 0.00 0.00 0.00 0.00 0.00 0.00 0.00 0.00 0.00 0.00 0.00 0.00 0.00 0.00 0.00 0.00 0.00 0.00
0.00 0.00 0.00 0.00 0.00 0.00 0.00 0.00 0.00 0.00 0.01 0.00 0.00 0.00 0.00 0.00 0.00 0.00 0.00 0.00 0.00 0.00 0.00 0.00 0.00 0.00 0.00 0.00 0.00 0.00 0.00 0.00
0.00 0.00 0.00 0.00 0.00 0.00 0.00 0.00 0.00 0.00 0.00 0.00 0.00 0.00 0.00 0.00 0.00 0.00 0.00 0.00 0.00 0.00 0.00 0.00 0.00 0.00 0.00 0.00 0.00 0.00 0.00 0.00
0.00 0.00 0.00 0.00 0.00 0.00 0.00 0.01 0.01 0.00 0.00 0.00 0.00 0.00 0.00 0.00 0.00 0.00 0.00 0.00 0.00 0.00 0.00 0.00 0.00 0.00 0.00 0.00 0.00 0.00 0.00 0.00
0.00 0.00 0.00 0.00 0.00 0.00 0.01 0.01 0.00 0.00 0.00 0.00 0.00 0.00 0.00 0.00 0.00 0.00 0.00 0.00 0.00 0.00 0.00 0.00 0.00 0.00 0.00 0.00 0.00 0.00 0.00 0.00
0.00 0.00 0.00 0.00 0.00 0.00 0.01 0.01 0.00 0.00 0.00 0.00 0.00 0.00 0.00 0.00 0.00 0.00 0.00 0.00 0.00 0.00 0.00 0.00 0.00 0.00 0.00 0.00 0.00 0.00 0.00 0.00
0.00 0.00 0.00 0.00 0.00 0.00 0.00 0.00 0.00 0.00 0.00 0.00 0.00 0.00 0.00 0.00 0.00 0.00 0.00 0.00 0.00 0.00 0.00 0.00 0.00 0.00 0.00 0.00 0.00 0.00 0.00 0.00
0.00 0.00 0.00 0.00 0.00 0.00 0.00 0.00 0.00 0.00 0.00 0.00 0.00 0.00 0.00 0.00 0.00 0.00 0.00 0.00 0.00 0.00 0.00 0.00 0.00 0.00 0.00 0.00 0.00 0.00 0.00 0.00
0.00 0.00 0.00 0.00 0.00 0.00 0.00 0.00 0.00 0.00 0.00 0.00 0.00 0.00 0.00 0.00 0.00 0.00 0.00 0.00 0.00 0.00 0.00 0.00 0.00 0.00 0.00 0.00 0.00 0.00 0.00 0.00
0.00 0.00 0.00 0.00 0.00 0.00 0.00 0.00 0.00 0.00 0.00 0.00 0.00 0.00 0.00 0.00 0.00 0.00 0.00 0.00 0.00 0.00 0.00 0.00 0.00 0.00 0.00 0.00 0.00 0.00 0.00 0.00
0.00 0.00 0.00 0.00 0.00 0.00 0.00 0.00 0.00 0.00 0.00 0.00 0.00 0.00 0.00 0.00 0.00 0.00 0.00 0.00 0.00 0.00 0.00 0.00 0.00 0.00 0.00 0.00 0.00 0.00 0.00 0.00
0.00 0.00 0.00 0.00 0.00 0.00 0.00 0.00 0.00 0.00 0.00 0.00 0.00 0.00 0.00 0.00 0.00 0.00 0.00 0.00 0.00 0.00 0.00 0.00 0.00 0.00 0.00 0.00 0.00 0.00 0.00 0.00
0.00 0.00 0.00 0.00 0.00 0.00 0.00 0.00 0.00 0.00 0.00 0.00 0.00 0.00 0.00 0.00 0.00 0.00 0.00 0.00 0.00 0.00 0.00 0.00 0.00 0.00 0.00 0.00 0.00 0.00 0.00 0.00
0.00 0.00 0.00 0.00 0.00 0.00 0.00 0.00 0.00 0.00 0.00 0.00 0.00 0.00 0.00 0.00 0.01 0.01 0.01 0.00 0.00 0.00 0.01 0.01 0.00 0.00 0.00 0.00 0.00 0.00 0.00 0.00
0.00 0.00 0.00 0.00 0.00 0.00 0.00 0.00 0.00 0.00 0.00 0.00 0.00 0.00 0.00 0.01 0.01 0.01 0.00 0.00 0.00 0.01 0.01 0.00 0.00 0.00 0.00 0.00 0.00 0.00 0.00 0.00
0.00 0.00 0.00 0.00 0.00 0.00 0.00 0.00 0.00 0.00 0.00 0.00 0.00 0.00 0.00 0.02 0.02 0.00 0.00 0.01 0.02 0.02 0.01 0.00 0.00 0.00 0.00 0.00 0.00 0.00 0.00 0.00
0.00 0.00 0.00 0.00 0.00 0.00 0.00 0.00 0.00 0.00 0.00 0.00 0.00 0.00 0.00 0.00 0.01 0.01 0.01 0.01 0.01 0.00 0.00 0.00 0.00 0.00 0.00 0.00 0.00 0.00 0.00 0.00
0.00 0.00 0.00 0.00 0.00 0.00 0.00 0.00 0.00 0.00 0.00 0.00 0.00 0.00 0.00 0.00 0.00 0.01 0.02 0.00 0.00 0.00 0.00 0.00 0.00 0.00 0.00 0.00 0.00 0.00 0.00 0.00
MSLP
1010.85 1010.47 1010.29 1010.58 1011.00 1011.81 1012.83 1013.65 1014.42 1014.97 1015.41 1015.88 1016.36 1016.76 1017.07 1017.51 1017.81 1018.16 1018.55 1018.75 1018.99 1019.31 1019.66 1019.84 1020.00 1020.38 1020.54 1020.42 1020.85 1021.37 1021.91 1022.25
1011.18 1010.94 1010.91 1011.23 1011.76 1012.26 1012.97 1013.75 1014.59 1015.05 1015.59 1016.13 1016.69 1017.00 1017.38 1017.95 1018.09 1018.38 1018.71 1018.89 1019.16 1019.49 1019.88 1020.12 1020.13 1020.42 1020.60 1020.57 1021.03 1021.55 1022.01 1022.16
1011.51 1011.38 1011.42 1011.50 1012.14 1012.86 1013.51 1014.11 1014.67 1015.15 1015.43 1015.89 1016.26 1016.83 1017.55 1017.99 1018.46 1018.73 1018.91 1019.09 1019.35 1019.67 1019.98 1020.24 1020.37 1020.54 1020.70 1020.74 1020.82 1021.41 1021.71 1021.99
1011.49 1011.74 1011.78 1011.67 1012.39 1013.04 1013.72 1014.27 1014.78 1015.20 1015.56 1015.97 1016.53 1017.09 1017.74 1018.43 1018.94 1019.28 1019.49 1019.61 1019.76 1019.90 1020.09 1020.30 1020.49 1020.66 1021.00 1021.16 1021.14 1021.42 1021.93 1022.06
1011.11 1011.68 1011.80 1011.98 1012.62 1013.17 1013.73 1014.25 1014.70 1015.15 1015.62 1015.94 1016.23 1016.67 1017.73 1018.35 1018.84 1019.38 1019.73 1019.74 1019.86 1019.97 1020.11 1020.23 1020.38 1020.54 1020.72 1020.84 1021.06 1021.30 1021.66 1022.13
1010.80 1011.27 1011.34 1012.03 1012.70 1013.26 1013.76 1014.31 1014.80 1015.17 1015.59 1015.99 1016.37 1016.92 1017.58 1018.19 1018.76 1019.30 1019.66 1019.68 1019.72 1019.80 1020.07 1020.34 1020.49 1020.53 1020.66 1020.80 1020.93 1021.27 1021.59 1021.96
1010.59 1011.00 1011.45 1012.07 1012.63 1013.35 1013.93 1014.42 1014.84 1015.29 1015.65 1015.98 1016.25 1016.71 1017.48 1018.23 1018.78 1019.25 1019.50 1019.59 1019.69 1019.70 1019.88 1020.16 1020.29 1020.42 1020.65 1020.88 1021.18 1021.39 1021.59 1021.82
1010.16 1010.75 1011.35 1011.84 1012.48 1013.27 1013.88 1014.40 1014.73 1015.08 1015.43 1015.79 1016.06 1016.48 1017.10 1017.65 1018.27 1018.80 1019.28 1019.50 1019.75 1019.69 1019.72 1019.99 1020.04 1020.17 1020.55 1020.85 1021.12 1021.20 1021.48 1021.75
1009.57 1010.18 1010.64 1011.24 1012.11 1012.93 1013.55 1014.06 1014.39 1014.66 1015.04 1015.40 1015.72 1016.20 1016.86 1017.28 1017.61 1018.08 1018.45 1018.67 1018.75 1018.95 1019.30 1019.54 1019.79 1020.01 1020.22 1020.69 1021.15 1021.21 1021.30 1021.61
1008.97 1009.64 1010.09 1010.89 1011.67 1012.39 1012.88 1013.37 1013.71 1014.04 1014.41 1014.88 1015.27 1015.80 1016.35 1016.79 1017.04 1017.50 1017.76 1017.97 1018.22 1018.60 1018.95 1019.24 1019.40 1019.77 1020.06 1020.33 1020.71 1020.76 1020.95 1021.23
1008.45 1008.94 1009.77 1010.53 1011.28 1011.95 1012.38 1012.66 1013.01 1013.40 1013.94 1014.46 1014.82 1015.23 1015.70 1016.08 1016.57 1016.99 1017.27 1017.49 1017.84 1018.20 1018.50 1018.79 1019.14 1019.38 1019.59 1019.97 1020.33 1020.56 1020.84 1021.07
1007.63 1008.45 1009.31 1009.96 1010.90 1011.67 1012.03 1012.33 1012.75 1013.19 1013.62 1014.03 1014.44 1014.82 1015.19 1015.56 1016.29 1016.60 1016.77 1017.13 1017.39 1017.74 1018.04 1018.39 1018.75 1019.15 1019.52 1019.80 1020.06 1020.28 1020.53 1020.65
1007.18 1008.00 1008.86 1009.64 1010.45 1011.15 1011.56 1012.07 1012.46 1012.82 1013.25 1013.73 1014.20 1014.56 1015.03 1015.42 1015.70 1016.18 1016.49 1016.86 1017.02 1017.28 1017.76 1018.21 1018.61 1019.02 1019.34 1019.63 1019.87 1020.12 1020.25 1020.61
1006.96 1007.72 1008.36 1009.05 1009.83 1010.44 1010.95 1011.43 1012.00 1012.42 1012.90 1013.35 1013.88 1014.51 1014.82 1015.12 1015.58 1016.18 1016.64 1017.00 1017.25 1017.61 1018.08 1018.44 1018.63 1018.86 1019.15 1019.33 1019.42 1019.52 1019.80 1020.16
1006.13 1007.09 1007.69 1008.34 1009.06 1009.56 1010.24 1010.98 1011.45 1012.01 1012.73 1013.30 1013.90 1014.40 1014.54 1014.87 1015.56 1016.40 1017.12 1017.71 1018.21 1018.36 1018.63 1018.94 1019.00 1019.10 1019.26 1019.32 1019.40 1019.67 1019.89 1020.52
1005.44 1006.26 1006.90 1007.54 1008.31 1008.78 1009.25 1010.06 1010.68 1010.97 1011.85 1012.75 1013.50 1014.26 1014.90 1015.36 1016.04 1016.72 1017.27 1017.84 1018.33 1019.23 1019.67 1020.17 1019.82 1019.89 1019.96 1019.85 1019.84 1019.98 1020.69 1021.27
1004.44 1005.00 1005.86 1006.69 1007.25 1007.75 1008.31 1009.30 1010.25 1010.97 1011.83 1012.80 1013.69 1014.58 1015.18 1015.86 1016.84 1017.66 1017.92 1018.12 1018.78 1019.31 1019.90 1020.65 1020.82 1020.82 1020.77 1020.50 1020.42 1020.65 1020.92 1021.56
1003.82 1004.48 1005.03 1005.56 1006.28 1007.09 1008.38 1009.45 1010.42 1011.61 1012.69 1013.70 1014.51 1015.21 1016.15 1017.04 1017.84 1018.75 1019.75 1019.53 1019.81 1020.54 1020.70 1021.13 1021.64 1021.55 1021.25 1021.18 1020.94 1021.28 1022.04 1021.81
1003.19 1003.80 1004.65 1005.53 1006.59 1007.75 1008.79 1009.86 1011.32 1012.45 1013.54 1014.47 1015.42 1016.04 1017.03 1018.14 1018.97 1019.30 1020.19 1020.31 1020.85 1020.86 1021.20 1021.26 1021.99 1022.26 1021.91 1022.08 1022.04 1022.24 1022.50 1022.57
Thickness
5767 5768 5764 5761 5759 5752 5741 5732 5724 5719 5714 5708 5704 5699 5695 5690 5686 5682 5677 5672 5667 5661 5655 5649 5643 5637 5634 5633 5625 5617 5609 5606
5755 5754 5752 5749 5745 5740 5734 5726 5718 5713 5707 5702 5697 5693 5688 5681 5678 5674 5670 5667 5661 5655 5647 5641 5637 5631 5627 5625 5619 5610 5602 5598
5744 5743 5741 5741 5735 5729 5723 5717 5711 5706 5703 5698 5695 5689 5682 5676 5671 5667 5663 5659 5654 5648 5642 5635 5630 5624 5619 5615 5611 5603 5597 5593
5735 5731 5732 5734 5728 5722 5715 5710 5705 5700 5696 5692 5687 5681 5674 5668 5662 5657 5652 5648 5644 5640 5635 5629 5623 5617 5610 5603 5598 5594 5587 5582
5733 5726 5725 5725 5720 5715 5709 5703 5699 5694 5690 5686 5684 5679 5668 5661 5655 5649 5644 5640 5636 5632 5628 5623 5618 5611 5604 5598 5592 5587 5580 5574
5726 5724 5723 5718 5712 5707 5701 5696 5691 5688 5684 5680 5675 5669 5662 5656 5649 5643 5638 5635 5630 5626 5619 5612 5607 5603 5596 5591 5586 5579 5572 5565
5721 5719 5717 5710 5705 5698 5692 5688 5684 5680 5676 5672 5669 5664 5656 5648 5642 5637 5631 5627 5623 5618 5611 5604 5598 5594 5588 5582 5574 5569 5563 5556
5716 5712 5707 5704 5698 5691 5685 5680 5677 5674 5670 5667 5663 5658 5651 5646 5639 5632 5624 5619 5613 5608 5603 5596 5591 5586 5579 5572 5567 5561 5555 5548
5714 5708 5705 5700 5694 5687 5680 5675 5672 5669 5667 5663 5658 5653 5644 5640 5635 5628 5622 5616 5610 5603 5596 5590 5583 5577 5571 5562 5555 5550 5546 5539
5709 5703 5701 5694 5689 5683 5679 5674 5671 5668 5664 5659 5654 5646 5640 5635 5630 5622 5616 5610 5603 5595 5586 5580 5574 5565 5558 5553 5546 5541 5535 5529
5705 5701 5694 5689 5683 5679 5675 5673 5668 5665 5659 5653 5648 5642 5636 5630 5622 5615 5609 5602 5594 5586 5579 5572 5564 5556 5549 5543 5536 5532 5525 5518
5703 5697 5689 5684 5677 5672 5669 5665 5661 5657 5653 5647 5641 5634 5629 5624 5613 5606 5602 5595 5588 5579 5573 5564 5555 5546 5538 5532 5525 5519 5514 5508
5696 5690 5683 5677 5672 5667 5664 5659 5655 5651 5645 5638 5631 5624 5618 5611 5605 5597 5591 5583 5578 5570 5559 5550 5542 5534 5527 5521 5513 5506 5501 5493
5684 5681 5678 5673 5668 5664 5660 5655 5649 5644 5636 5630 5624 5613 5605 5600 5592 5583 5573 5564 5558 5550 5542 5535 5528 5521 5514 5508 5503 5497 5491 5483
5679 5674 5675 5671 5666 5662 5657 5649 5644 5638 5628 5619 5612 5602 5596 5589 5580 5567 5555 5545 5535 5528 5520 5514 5508 5502 5497 5492 5487 5481 5474 5464
5673 5670 5670 5668 5663 5660 5654 5646 5638 5634 5624 5613 5602 5591 5581 5573 5561 5550 5541 5531 5521 5508 5499 5488 5486 5479 5472 5470 5465 5460 5452 5441
5672 5675 5670 5666 5664 5661 5654 5643 5630 5622 5612 5599 5586 5575 5565 5555 5543 5531 5522 5514 5504 5495 5484 5470 5460 5456 5454 5450 5447 5440 5433 5423
5672 5672 5669 5668 5663 5656 5643 5630 5619 5605 5592 5579 5570 5559 5546 5534 5522 5507 5492 5487 5480 5470 5464 5453 5444 5440 5437 5430 5427 5420 5409 5405
5670 5668 5658 5651 5643 5632 5621 5612 5597 5582 5570 5558 5547 5537 5523 5509 5495 5486 5474 5469 5458 5452 5445 5439 5425 5415 5414 5406 5401 5393 5387 5382